#timestamp,LO_Frequency,Hit,StdDev 
1573354815.8,286046997.0,N
1573354835.7,286046997.3,N
1573354855.5,286046997.2,N
1573354875.3,286046997.6,N
1573354895.2,286047001.2,N
1573354915.0,286046997.3,N
1573354915.9,286046997.3,N
1573354935.8,286046996.8,N
1573354955.6,286046999.2,N
1573354975.4,286046998.6,N
1573354995.3,286046998.4,N
1573355015.1,286046998.4,N
1573355016.0,286046998.4,N
1573355035.8,286047001.1,N
1573355055.7,286046998.4,N
1573355075.5,286047000.8,N
1573355095.3,286046999.6,N
1573355115.2,286046999.6,N
1573355135.0,286046999.1,N
1573355135.9,286046999.1,N
1573355155.8,286047001.2,N
1573355175.6,286046998.5,N
1573355195.4,286046998.1,N
1573355215.3,286047000.0,N
1573355235.1,286046999.7,N
1573355255.8,286047000.2,N
1573355275.7,286047002.7,N
1573355295.5,286047001.8,N
1573355315.4,286047002.8,N
1573355335.2,286047000.4,N
1573355355.0,286047001.9,N
1573355355.9,286047001.9,N
1573355375.8,286047002.0,N
1573355395.6,286047002.0,N
1573355415.4,286047004.4,N
1573355435.3,286047001.8,N
1573355455.1,286047003.5,N
1573355475.9,286047003.0,N
1573355495.7,286047005.0,N
1573355515.5,286047005.3,N
1573355535.4,286047003.0,N
1573355555.2,286047003.2,N
1573355575.0,286047005.7,N
1573355575.9,286047005.7,N
1573355595.8,286047005.8,N
1573355615.6,286047003.3,N
1573355635.5,286047003.9,N
1573355655.3,286047004.8,N
1573355675.1,286047005.4,N
1573355695.9,286047003.2,N
1573355715.7,286047004.7,N
1573355735.5,286047003.6,N
1573355755.4,286047004.2,N
1573355775.2,286047004.1,N
1573355795.1,286047001.7,N
1573355796.0,286047001.7,N
1573355815.8,286047001.9,N
1573355835.6,286047003.9,N
1573355855.5,286047004.2,N
1573355875.3,286047003.9,N
1573355895.2,286047003.9,N
1573355915.9,286047003.4,N
1573355935.7,286047003.7,N
1573355955.6,286047001.7,N
1573355975.4,286047001.5,N
1573355995.2,286047002.2,N
1573356015.1,286047001.8,N
1573356016.0,286047001.8,N
1573356035.8,286047004.4,Y
1573356055.7,286047000.2,P
1573356075.5,286047001.5,N
1573356095.3,286047001.7,N
1573356115.2,286047002.9,N
1573356135.0,286047004.0,Y
1573356135.9,286047004.0,P
1573356155.8,286047000.3,N
1573356175.6,286046998.8,N
1573356195.4,286046997.1,N
1573356215.3,286046997.2,N
1573356235.1,286046997.3,N
1573356255.9,286046998.0,N
1573356275.7,286046995.0,N
1573356295.5,286046996.6,N
1573356315.4,286047001.2,N
1573356335.2,286047001.0,N
1573356355.0,286047002.4,N
1573356355.9,286047002.4,N
1573356375.8,286047001.9,N
1573356395.6,286047003.6,N
1573356415.5,286047003.0,N
1573356435.3,286047005.5,N
1573356455.1,286047003.5,N
1573356475.9,286047003.9,N
1573356495.7,286046999.7,N
1573356515.5,286047002.5,N
1573356535.4,286047000.5,N
1573356555.2,286047002.0,N
1573356575.1,286047004.2,N
1573356576.0,286047004.2,N
1573356595.8,286047001.3,N
1573356615.6,286047004.4,N
1573356635.5,286047007.6,N
1573356655.3,286047005.1,N
1573356675.1,286047009.2,Y
1573356695.9,286047008.7,P
1573356715.7,286047008.4,N
1573356735.6,286047009.0,N
1573356755.4,286047009.6,Y
1573356775.2,286047003.2,P
1573356795.1,286047003.1,N
1573356796.0,286047003.1,N
1573356815.8,286047005.5,Y
1573356835.6,286047002.6,P
1573356855.5,286047001.5,N
1573356875.3,286046999.8,N
1573356895.2,286047000.6,N
1573356915.9,286047002.4,N
1573356935.7,286047001.7,N
1573356955.6,286047004.1,Y
1573356975.4,286047000.6,P
1573356995.2,286047000.7,N
1573357015.1,286047004.3,P
1573357016.0,286047004.3,N
1573357035.8,286047002.8,N
1573357055.7,286046998.2,N
1573357075.5,286047002.7,N
1573357095.3,286047001.5,N
1573357115.2,286047000.9,N
1573357135.0,286047001.9,N
1573357135.9,286047001.9,N
1573357155.7,286047000.0,N
1573357175.6,286047000.3,N
1573357195.4,286046998.5,N
1573357215.3,286046997.1,N
1573357235.1,286046997.6,N
1573357236.0,286046997.6,N
1573357255.8,286046995.5,N
1573357275.7,286046995.1,N
1573357295.5,286046998.8,N
1573357315.3,286046997.7,N
1573357335.2,286046998.0,N
1573357355.0,286046998.0,N
1573357355.9,286046998.0,N
1573357375.8,286046996.1,N
1573357395.6,286046995.3,N
1573357415.4,286046996.1,N
1573357435.3,286046996.2,N
1573357455.1,286046997.9,N
1573357475.9,286046995.0,N
1573357495.7,286046996.3,N
1573357515.5,286046994.4,N
1573357535.4,286046996.3,N
1573357555.2,286046995.2,N
1573357575.0,286046995.0,N
1573357575.9,286046995.0,N
1573357595.8,286046999.6,N
1573357615.6,286047000.4,N
1573357635.5,286047002.4,N
1573357655.3,286047002.0,N
1573357675.1,286047000.5,N
1573357695.9,286047002.7,N
1573357715.7,286047000.3,N
1573357735.6,286047002.6,N
1573357755.4,286047004.3,N
1573357775.2,286047001.5,N
1573357795.1,286047001.3,N
1573357796.0,286047001.3,N
1573357815.8,286047006.0,N
1573357835.6,286047006.4,N
1573357855.5,286047006.4,N
1573357875.3,286047009.0,N
1573357895.2,286047009.1,N
1573357915.9,286047007.8,N
1573357935.7,286047010.8,N
1573357955.6,286047010.2,N
1573357975.4,286047012.4,N
1573357995.3,286047010.5,N
1573358015.1,286047013.7,N
1573358016.0,286047013.7,N
1573358035.8,286047013.7,N
1573358055.7,286047014.1,N
1573358075.5,286047018.5,Y
1573358095.3,286047012.7,P
1573358115.2,286047011.5,N
1573358135.0,286047009.4,N
1573358135.9,286047009.4,Y
1573358155.8,286046999.9,P
1573358175.6,286047000.0,N
1573358195.4,286047000.5,N
1573358215.3,286047000.7,N
1573358235.1,286047000.9,N
1573358255.8,286046999.2,N
1573358275.7,286046997.1,N
1573358295.5,286046997.7,N
1573358315.4,286046994.9,N
1573358335.2,286046995.9,N
1573358355.0,286046993.3,N
1573358355.9,286046993.3,N
1573358375.8,286046996.4,N
1573358395.6,286046993.4,N
